Wind_Speed
36 32 28 27 27 26 28 29 27 24 24 23 24 23 24 24 23 23 22 21 20 20 20 18 18 18 18 19 19 19 18 18 18 19 19 19 20 21 21 21 20 20 20 20
39 37 33 31 29 27 27 28 28 26 25 25 26 25 27 27 25 24 23 23 23 22 22 21 20 20 20 20 20 21 20 19 19 20 20 21 22 23 23 24 23 22 22 23
41 38 36 37 32 29 28 28 28 28 27 26 28 29 30 29 27 25 25 25 25 24 24 23 23 22 22 22 22 22 22 21 21 22 22 23 23 24 25 26 26 26 25 25
41 38 39 38 33 31 30 31 30 31 31 32 33 32 34 33 31 28 27 27 27 26 26 25 25 25 24 24 24 24 24 24 24 25 25 25 25 26 26 27 28 28 28 27
42 40 40 37 35 33 32 33 33 33 34 35 34 34 35 35 32 30 30 29 28 28 28 27 26 27 27 26 27 27 27 27 27 28 28 28 28 29 29 30 30 30 30 30
43 41 38 36 34 34 34 36 36 35 36 36 35 34 36 35 33 32 31 30 29 29 30 29 29 29 29 29 29 30 30 30 29 29 30 31 31 31 32 33 32 31 32 32
44 43 41 36 34 35 38 40 39 38 38 38 38 38 37 36 34 32 32 30 30 31 31 31 32 31 31 31 31 32 32 32 32 32 33 34 34 34 34 34 34 34 33 33
43 43 40 40 38 39 40 40 40 40 40 40 39 39 38 37 34 33 32 32 32 33 33 33 33 33 32 32 33 33 34 35 34 35 36 36 36 36 37 36 36 36 35 34
42 44 44 42 44 44 42 41 40 40 41 41 40 40 39 37 37 36 35 35 35 35 35 35 35 35 34 34 35 35 36 36 37 37 38 38 38 38 38 39 38 36 36 35
40 43 45 44 43 44 44 43 42 41 41 41 40 39 39 38 38 37 37 37 37 37 38 38 37 37 37 36 37 38 38 38 38 39 39 40 40 40 39 39 39 38 37 37
41 42 44 46 46 44 45 44 44 43 42 41 41 40 40 40 39 39 38 38 38 38 38 38 39 38 38 38 39 39 39 39 39 40 41 41 41 41 40 40 40 40 39 38
41 42 42 43 44 43 44 45 44 44 44 43 43 43 42 42 40 39 40 40 40 40 40 40 40 40 39 40 40 40 40 40 40 41 41 41 41 41 40 40 40 40 40 39
40 43 41 40 41 43 43 43 44 44 45 45 44 44 43 43 43 42 41 41 40 41 41 41 41 41 41 41 41 42 42 41 42 41 41 41 41 41 40 40 39 40 40 40
33 37 38 39 40 40 41 42 43 42 43 43 44 43 43 43 44 43 42 41 41 41 41 41 41 42 42 42 42 42 42 42 42 42 41 42 41 41 41 41 40 40 40 40
32 35 38 39 40 41 41 41 42 43 42 43 44 44 42 42 40 41 42 42 41 41 42 42 43 42 42 42 41 41 41 42 42 42 42 42 41 41 41 41 41 41 41 41
31 31 34 36 37 39 39 38 40 42 41 42 43 44 44 44 42 41 42 42 42 42 42 43 43 43 42 42 42 41 41 42 42 43 43 42 41 41 41 41 42 42 42 41
31 32 33 34 35 37 37 37 39 40 40 39 40 41 42 43 43 43 43 42 42 42 41 41 43 43 42 41 41 41 41 41 42 41 41 41 41 41 42 42 42 41 41 40
28 31 31 32 33 34 35 36 36 37 37 38 38 39 40 40 41 40 41 41 42 42 41 40 41 41 41 41 41 41 41 41 41 41 40 40 41 41 41 41 41 41 41 40
29 30 29 30 31 33 34 36 35 35 36 36 37 37 38 38 38 38 38 39 39 38 38 38 39 39 39 39 40 40 40 40 41 40 40 40 40 40 40 40 40 40 41 40
28 29 29 29 29 31 32 33 35 35 34 34 34 35 36 36 36 36 35 35 34 35 35 36 37 37 37 38 39 39 39 39 39 39 39 39 39 39 39 40 40 40 40 39
24 26 28 28 29 29 30 31 32 33 34 34 34 34 34 34 34 34 34 34 34 34 34 34 35 35 35 36 36 37 37 38 38 38 38 38 38 38 38 39 39 39 39 38
20 22 24 24 25 26 27 27 28 30 31 32 33 32 32 32 33 33 32 33 34 33 34 33 33 33 34 34 35 35 36 37 37 37 37 37 36 36 36 37 37 37 36 36
18 19 21 22 22 23 24 24 25 26 27 28 29 30 30 30 30 30 30 30 31 31 31 31 31 32 32 32 33 33 34 34 34 34 35 35 34 34 34 35 36 36 36 36
17 18 19 19 20 21 22 23 24 24 25 25 25 26 27 28 28 29 29 29 29 29 29 29 29 29 30 30 30 31 31 31 32 32 32 32 32 33 33 33 34 34 35 35
16 16 18 19 19 20 20 21 21 22 22 23 24 24 25 26 26 26 27 27 27 27 26 26 27 28 28 28 28 28 28 29 29 29 29 30 31 31 32 32 32 33 33 34
16 17 17 17 17 18 18 19 19 20 20 21 21 22 23 23 23 23 24 25 25 25 24 24 25 25 26 26 27 27 27 27 28 28 28 29 30 30 31 31 31 32 32 33
13 14 14 14 15 15 15 16 16 17 18 18 19 19 20 21 21 21 21 21 22 22 23 24 24 25 25 25 26 26 26 26 27 28 28 29 29 30 30 30 31 31 32 32
Wind_Direction
224 222 224 230 236 234 231 231 232 237 240 246 252 256 255 258 263 264 266 267 270 275 282 288 293 297 302 306 309 311 314 317 320 321 323 325 326 327 327 328 328 326 324 323
228 225 226 229 230 232 232 234 232 233 237 240 247 250 253 255 257 262 266 267 268 271 276 282 286 289 292 297 301 304 307 309 314 316 317 317 319 321 322 322 322 322 321 322
231 230 230 231 229 232 236 236 234 234 237 242 245 246 253 257 258 262 265 264 265 267 272 276 281 284 287 289 294 297 299 302 306 309 311 312 313 315 318 320 320 319 318 317
234 231 233 232 230 231 235 237 236 235 235 239 243 248 253 256 258 261 263 263 265 267 270 272 277 281 283 285 288 291 292 294 298 301 305 307 309 311 312 315 317 316 315 314
234 234 235 234 232 231 234 236 234 236 237 240 243 248 253 256 256 260 260 262 264 266 270 272 274 279 281 283 285 286 287 289 292 295 299 302 305 309 310 313 313 314 313 312
235 234 235 236 234 232 234 237 235 235 237 240 241 245 251 256 259 261 261 259 262 265 268 271 274 276 278 280 282 283 285 287 290 293 297 300 303 305 308 309 310 312 313 312
236 236 235 233 232 231 233 235 236 237 238 239 241 245 249 254 259 261 260 260 262 264 266 269 272 275 277 278 279 281 283 286 288 291 295 297 301 302 304 307 307 308 309 309
236 235 235 234 234 233 233 235 236 237 240 242 244 247 250 252 255 258 261 263 264 264 265 268 271 273 276 277 278 279 281 283 286 289 292 295 298 300 302 303 305 306 306 306
236 235 234 235 234 236 237 237 238 239 242 244 245 247 251 252 254 255 258 261 263 264 265 267 269 272 274 276 276 277 279 281 284 287 289 292 294 296 298 300 302 303 303 303
231 234 235 235 235 236 237 239 239 241 243 246 247 248 251 253 255 256 257 259 262 264 266 267 269 270 272 275 275 276 277 279 282 284 287 289 291 292 294 296 298 300 301 300
231 234 235 234 237 237 236 237 240 241 242 246 249 251 252 254 256 256 257 259 261 264 266 267 269 270 272 273 275 276 276 277 279 283 285 288 290 291 292 293 296 297 298 298
229 232 233 235 237 238 238 239 240 243 244 246 249 251 253 255 257 256 258 259 261 263 266 267 268 270 272 273 274 275 276 278 279 282 284 286 288 289 290 291 293 295 296 297
230 230 235 236 236 237 238 239 241 244 245 247 249 252 253 254 256 257 258 261 262 264 266 267 268 270 272 274 276 276 277 279 280 282 282 283 285 287 288 290 291 293 294 294
235 235 237 239 240 240 240 240 242 246 247 247 249 251 252 254 255 256 258 260 262 263 265 267 270 272 273 275 276 277 280 281 283 284 284 284 284 286 286 288 289 291 293 293
238 236 238 240 241 242 242 242 244 246 249 249 249 249 251 255 257 256 257 260 262 263 265 268 271 273 275 276 277 278 280 281 282 284 285 286 284 287 288 287 288 290 292 292
242 239 239 241 243 243 244 245 246 247 250 249 249 250 252 254 256 257 257 259 261 263 266 268 269 271 274 276 277 278 279 280 281 283 284 285 285 286 287 289 290 291 292 292
241 240 239 241 242 242 244 246 249 248 249 250 251 252 253 254 256 258 259 259 261 264 265 267 268 270 273 275 277 278 279 281 282 282 283 284 285 286 287 289 290 290 291 292
242 244 244 244 245 246 247 248 249 250 252 252 251 253 254 255 257 259 260 262 262 263 264 266 268 270 272 275 276 278 280 281 282 283 282 283 284 285 286 288 289 289 291 291
248 247 246 246 248 250 250 251 251 254 255 255 253 253 253 256 259 261 262 263 262 263 266 268 269 271 272 272 275 277 279 280 282 283 284 284 284 285 285 287 288 290 291 291
245 246 247 248 249 250 250 251 251 253 254 254 255 256 256 258 259 261 262 261 262 263 266 268 269 269 270 272 274 276 278 280 281 282 283 284 285 286 286 287 288 290 291 292
246 247 248 249 249 250 251 251 252 252 253 255 257 258 258 259 261 262 264 265 266 267 267 269 270 271 272 273 275 277 278 280 281 282 283 284 286 287 287 287 288 289 290 291
248 248 249 250 251 253 254 254 254 254 254 254 256 257 258 260 262 263 264 266 268 269 270 271 272 273 274 275 276 278 279 281 282 283 284 285 286 287 287 288 289 289 290 291
252 253 253 255 255 255 257 258 259 258 256 255 256 256 258 260 262 263 265 267 269 270 272 273 273 273 275 277 278 280 280 281 282 284 285 285 287 288 288 289 290 290 291 291
256 256 256 255 256 257 258 259 259 259 258 257 257 258 260 262 263 264 265 267 268 270 271 273 274 276 277 279 279 281 283 284 284 285 285 286 288 290 291 291 291 292 292 293
257 258 259 258 258 259 260 260 260 259 258 258 259 260 262 264 267 267 267 268 270 271 273 275 276 277 278 280 282 284 285 285 286 288 289 289 291 292 293 293 293 292 293 294
259 259 259 260 260 260 261 263 263 262 261 260 261 262 263 265 266 267 268 269 270 272 274 275 276 279 281 282 283 285 286 287 288 290 291 292 293 294 294 294 294 295 296 297
260 259 259 260 260 261 261 263 263 262 262 261 261 262 264 266 267 268 269 270 272 273 275 278 279 279 281 283 285 286 287 288 289 290 292 294 295 296 296 296 297 298 298 298
Height
5876 5882 5887 5890 5893 5896 5899 5903 5907 5910 5912 5911 5910 5910 5910 5910 5911 5911 5911 5912 5912 5912 5912 5912 5911 5910 5909 5908 5907 5906 5904 5902 5900 5898 5896 5894 5892 5890 5887 5884 5882 5879 5876 5874
5867 5872 5878 5882 5886 5889 5892 5896 5899 5902 5904 5906 5904 5902 5903 5903 5904 5905 5906 5907 5907 5907 5907 5907 5907 5907 5906 5905 5904 5902 5901 5899 5898 5896 5893 5891 5889 5886 5884 5881 5878 5875 5873 5870
5858 5864 5868 5872 5878 5883 5886 5888 5892 5895 5898 5897 5897 5897 5897 5897 5897 5899 5901 5901 5902 5902 5902 5903 5902 5902 5901 5901 5900 5898 5897 5895 5894 5892 5889 5887 5885 5882 5880 5877 5874 5872 5869 5866
5849 5855 5857 5865 5871 5875 5878 5881 5884 5886 5888 5888 5889 5890 5890 5891 5892 5894 5895 5895 5896 5896 5896 5896 5897 5896 5896 5895 5895 5893 5892 5891 5889 5887 5885 5883 5880 5878 5875 5873 5870 5867 5864 5862
5839 5844 5848 5856 5861 5865 5869 5871 5874 5876 5878 5879 5881 5882 5882 5883 5884 5887 5889 5889 5890 5890 5890 5889 5890 5890 5890 5889 5889 5887 5886 5885 5883 5881 5879 5877 5875 5873 5870 5867 5864 5861 5859 5856
5829 5834 5840 5847 5852 5855 5860 5861 5864 5866 5868 5870 5873 5874 5874 5875 5877 5880 5881 5881 5883 5883 5884 5883 5884 5884 5883 5883 5882 5881 5879 5878 5876 5875 5873 5871 5869 5866 5864 5861 5858 5855 5852 5849
5819 5823 5830 5836 5840 5844 5849 5850 5853 5856 5858 5861 5863 5865 5867 5868 5869 5871 5871 5873 5875 5876 5876 5876 5876 5876 5876 5876 5875 5874 5872 5871 5869 5868 5867 5865 5862 5860 5857 5854 5851 5848 5845 5842
5809 5814 5822 5825 5829 5832 5833 5837 5841 5845 5847 5850 5853 5856 5858 5860 5861 5863 5863 5865 5867 5868 5868 5868 5868 5868 5868 5867 5867 5866 5865 5863 5861 5860 5859 5857 5855 5852 5849 5847 5844 5841 5838 5835
5800 5804 5808 5812 5816 5819 5822 5827 5831 5834 5837 5841 5844 5846 5848 5850 5852 5854 5856 5857 5858 5859 5859 5860 5860 5860 5859 5859 5858 5857 5856 5854 5853 5852 5850 5848 5846 5844 5841 5838 5835 5832 5830 5827
5787 5791 5795 5800 5803 5808 5813 5817 5821 5824 5828 5830 5833 5836 5838 5840 5843 5844 5846 5848 5848 5849 5850 5850 5850 5850 5850 5849 5848 5847 5846 5845 5844 5842 5841 5839 5837 5835 5832 5829 5826 5823 5821 5818
5776 5780 5784 5789 5793 5797 5801 5805 5809 5813 5817 5820 5823 5826 5828 5830 5832 5834 5836 5837 5838 5839 5839 5839 5839 5839 5839 5839 5838 5837 5835 5834 5833 5832 5831 5829 5827 5825 5822 5820 5817 5814 5812 5809
5764 5768 5772 5777 5781 5784 5789 5794 5798 5802 5806 5809 5812 5815 5818 5820 5821 5823 5825 5826 5828 5828 5828 5829 5829 5829 5829 5828 5828 5827 5825 5824 5823 5822 5820 5819 5817 5815 5812 5810 5807 5804 5802 5799
5753 5758 5762 5766 5769 5773 5778 5783 5787 5791 5794 5798 5801 5803 5806 5808 5809 5812 5814 5815 5817 5817 5817 5818 5818 5818 5818 5817 5817 5815 5814 5813 5812 5810 5809 5807 5805 5804 5802 5800 5797 5795 5792 5790
5745 5750 5753 5755 5760 5765 5769 5773 5777 5779 5782 5786 5789 5792 5794 5796 5797 5800 5802 5804 5805 5806 5807 5807 5807 5807 5807 5806 5806 5804 5803 5802 5801 5798 5797 5794 5793 5792 5790 5789 5787 5785 5782 5780
5738 5741 5745 5748 5752 5756 5759 5763 5766 5769 5772 5775 5777 5780 5782 5783 5785 5787 5790 5792 5794 5795 5795 5796 5796 5796 5795 5795 5794 5793 5792 5791 5789 5788 5786 5784 5782 5780 5779 5777 5776 5774 5772 5769
5730 5732 5736 5739 5743 5746 5750 5753 5756 5759 5761 5763 5766 5769 5772 5773 5774 5777 5779 5781 5782 5783 5784 5784 5784 5784 5783 5783 5782 5782 5780 5779 5778 5776 5775 5773 5771 5770 5768 5766 5764 5762 5760 5757
5722 5724 5728 5730 5733 5737 5741 5744 5746 5749 5750 5752 5755 5758 5760 5762 5764 5766 5768 5769 5770 5771 5772 5772 5772 5772 5772 5771 5771 5770 5769 5767 5766 5764 5763 5761 5759 5758 5756 5754 5752 5750 5748 5746
5715 5718 5720 5722 5726 5729 5732 5734 5736 5739 5741 5744 5745 5747 5749 5751 5753 5755 5756 5758 5759 5759 5760 5760 5760 5760 5760 5760 5759 5758 5757 5756 5754 5753 5751 5750 5748 5746 5745 5743 5741 5738 5737 5734
5710 5712 5714 5716 5719 5721 5723 5726 5728 5730 5732 5734 5735 5737 5739 5741 5743 5744 5745 5746 5746 5747 5748 5749 5749 5749 5749 5748 5747 5747 5746 5744 5743 5741 5740 5738 5737 5735 5733 5732 5729 5727 5725 5723
5704 5706 5708 5710 5712 5714 5716 5718 5720 5721 5723 5725 5726 5728 5730 5732 5733 5734 5733 5735 5736 5736 5737 5737 5738 5738 5737 5737 5736 5735 5735 5733 5732 5730 5729 5727 5726 5724 5722 5720 5718 5716 5714 5711
5698 5700 5701 5703 5705 5707 5708 5710 5712 5713 5715 5716 5718 5719 5721 5722 5723 5724 5725 5726 5727 5727 5727 5727 5727 5727 5727 5726 5725 5724 5724 5722 5721 5720 5718 5716 5714 5713 5711 5709 5707 5705 5703 5700
5693 5694 5695 5697 5698 5700 5701 5702 5704 5705 5707 5708 5710 5711 5712 5713 5715 5715 5716 5717 5718 5718 5718 5717 5717 5717 5716 5716 5715 5714 5713 5712 5710 5709 5707 5705 5704 5702 5700 5698 5696 5694 5692 5689
5688 5689 5690 5692 5693 5694 5695 5695 5696 5698 5699 5700 5702 5703 5704 5705 5706 5707 5708 5708 5708 5709 5709 5709 5708 5707 5707 5706 5705 5704 5703 5702 5700 5699 5697 5696 5694 5692 5690 5688 5686 5683 5681 5679
5684 5684 5685 5686 5687 5688 5689 5689 5690 5691 5692 5693 5694 5695 5696 5697 5698 5699 5700 5700 5700 5700 5700 5700 5699 5699 5698 5697 5696 5695 5694 5692 5691 5689 5688 5686 5684 5682 5680 5678 5676 5674 5671 5669
5679 5680 5681 5681 5682 5682 5683 5684 5684 5685 5686 5687 5687 5688 5689 5690 5690 5691 5692 5692 5692 5692 5692 5692 5692 5691 5690 5689 5688 5687 5686 5684 5682 5681 5679 5677 5676 5673 5671 5669 5667 5664 5662 5659
5675 5675 5676 5676 5677 5677 5678 5678 5678 5679 5679 5680 5681 5682 5682 5683 5683 5684 5684 5684 5685 5685 5684 5684 5683 5683 5682 5681 5680 5679 5677 5676 5674 5673 5671 5669 5667 5665 5663 5660 5658 5655 5653 5650
5671 5671 5671 5672 5672 5672 5673 5673 5673 5674 5674 5675 5675 5676 5676 5677 5677 5677 5678 5678 5678 5678 5677 5677 5676 5675 5674 5673 5672 5671 5670 5668 5667 5665 5663 5661 5659 5657 5654 5652 5649 5646 5644 5641